Tracking 18980 objects as of 20-Feb-2018
HD Live streaming from Space Station
objects crossing your sky now

COSMOS 446

Track COSMOS 446 now!
10-day predictions
COSMOS 446 is classified as:


NORAD ID: 5549
Int'l Code: 1971-086C
Perigee: 1,388.1 km
Apogee: 1,518.4 km
Inclination: 74.0 °
Period: 114.8 minutes
Semi major axis: 7824 km
RCS: 0.7417 m2 (medium)
Launch date: October 13, 1971
Source: Commonwealth of Independent States (former USSR) (CIS)
Launch site: PLESETSK MISSILE AND SPACE COMPLEX (PKMTR)
aabbcc
Your satellite tracking list
Your tracking list is empty




NASA's NSSDC Master Catalog

Two Line Element Set (TLE):
1  5549U 71086C   18050.93522274 -.00000022 +00000-0 -38419-4 0  9998
2  5549 074.0254 230.8293 0083261 024.2628 082.5443 12.54410734122640
Source of the keplerian elements: AFSPC